Regional Weather Roundup
Issued by NWS Kansas City/Pleasant Hill, MO

Home | Current Version | Previous Version | Text Only | Print | Product List | Glossary On
Versions: 1 2 3 4 5 6 7 8 9 10 11 12 13 14 15 16 17 18 19 20 21 22 23 24 25 26 27 28 29 30 31 32 33 34 35 36 37 38 39 40 41 42 43 44 45 46 47 48 49 50
000
ASUS43 KEAX 201504
RWREAX

WEATHER ROUNDUP FOR EASTERN KANSAS AND NORTHWEST MISSOURI
NATIONAL WEATHER SERVICE KANSAS CITY/PLEASANT HILL MO
1000 AM CDT MON OCT 20 2014

KSZ040-057-103>105-MOZ028-029-037-043-201600-
...KANSAS CITY METROPOLITAN AREA...

CITY           SKY/WX    TMP DP  RH WIND       PRES   REMARKS
K.C. INTL      MOSUNNY   59  52  77 N12       30.06R
K.C. DOWNTOWN  SUNNY     61  53  75 NW3       30.06R
LEES SUMMIT    SUNNY     61  53  75 VRB7      30.06R
OLATHE - IXD   SUNNY     60  55  83 NW7       30.07R
OLATHE - OJC   SUNNY     61  54  77 N8        30.05R
LAWRENCE       SUNNY     57  53  86 W5        30.07R

$$

MOZ001>008-011>017-020>025-030>033-038>040-044>046-053-054-201600-
...NORTHERN AND CENTRAL MISSOURI...

CITY           SKY/WX    TMP DP  RH WIND       PRES   REMARKS
ST. JOSEPH     SUNNY     59  51  75 N5        30.07R
MOSBY          SUNNY     54  52  94 CALM      30.06R
WHITEMAN AFB   SUNNY     62  54  75 NW8       30.04R
CLINTON        SUNNY     63  55  77 CALM      30.06S
SEDALIA        SUNNY     63  54  72 W9        30.05R
WARSAW         NOT AVBL
MARSHALL       SUNNY     63  55  77 NW8       30.05R
CHILLICOTHE      N/A     60  48  64 N5        30.06R
MOBERLY        SUNNY     61  48  63 NW7       30.04R
KIRKSVILLE     SUNNY     59  48  67 N10       30.04R

$$

MOZ041-047>049-056>058-063>065-088>090-097-201600-
...EASTERN AND SOUTHERN MISSOURI...

CITY           SKY/WX    TMP DP  RH WIND       PRES   REMARKS
ST. LOUIS INTL SUNNY     64  53  67 W12       29.99S
SPIRIT OF STL  SUNNY     63  52  67 W9        29.99S
COLUMBIA       SUNNY     60  53  77 NW9       30.03R
JEFFERSON CITY SUNNY     60  53  77 VRB7      30.03S
MEXICO         SUNNY     63  55  77 NW9       30.01S
ROLLA          MOSUNNY   60  52  74 W9        30.02S
LEBANON        SUNNY     63  52  67 W12       30.07S
OSAGE BEACH    MOSUNNY   63  54  72 W12       30.05S
SPRINGFIELD    CLOUDY    63  52  67 W10       30.07R
BRANSON        MOSUNNY   63  54  72 SW5       30.09R
NEVADA         SUNNY     64  54  68 W6        30.08R
JOPLIN         MOSUNNY   63  53  70 SW8       30.09R
WEST PLAINS    CLOUDY    61  52  72 W8        30.07S

$$

IAZ060-094-KSZ022-034>040-054-083-096-NEZ052-066-093-201600-
...KANSAS...SOUTHEAST NEBRASKA AND IOWA...

CITY           SKY/WX    TMP DP  RH WIND       PRES   REMARKS
TOPEKA         SUNNY     59  53  80 W5        30.08R
MANHATTAN      SUNNY     57  52  83 CALM      30.08R
EMPORIA        SUNNY     61  57  87 W6        30.07R
CHANUTE        SUNNY     63  55  75 SW6       30.08R
WICHITA        SUNNY     63  56  78 VRB3      30.08R
OMAHA          SUNNY     53  45  74 N6        30.11R
LINCOLN        SUNNY     55  46  71 N3        30.12R
FALLS CITY     SUNNY     60  48  64 NE6       30.07R
LAMONI         SUNNY     56  46  69 N7        30.06R
DES MOINES     SUNNY     56  45  66 NW3       30.05R

$$




USA.gov is the U.S. government's official web portal to all federal, state and local government web resources and services.